Regional Weather Roundup
Issued by NWS Binghamton, NY

Home | Current Version | Previous Version | Text Only | Print | Product List | Glossary On
Versions: 1 2 3 4 5 6 7 8 9 10 11 12 13 14 15 16 17 18 19 20 21 22 23 24 25 26 27
000
ASUS41 KBGM 251810
RWRBGM

REGIONAL WEATHER ROUNDUP
NATIONAL WEATHER SERVICE BINGHAMTON NY
200 PM EDT SAT MAR 25 2017

Note: "fair" indicates few or no clouds below 12,000 feet with no
significant weather and/or obstructions to visibility.

* = Station(s) that does not report precipitation, such as rain,
snow, etc, also no thunder or fog.

NYZ009-015>018-022>025-036-037-044>046-055>057-062-251900
...Central New York...

CITY           SKY/WX    TMP DP  RH WIND       PRES   REMARKS
Binghamton     LGT SNOW  35  35 100 N12       30.25R FOG     WCI  27
Cortland       RAIN      36  36 100 CALM      30.28F
Dansville      LGT RAIN  37  34  89 NW3       30.32S
Elmira         LGT RAIN  37  33  85 NE6       30.30R FOG     WCI  32
Seneca Falls   RAIN      37  36  93 N6        30.34R WCI  33
Ithaca         LGT RAIN  34  34 100 NW6       30.30R FOG     WCI  29
Hamilton       CLOUDY    36  34  93 CALM      30.27F
Monticello     CLOUDY    43  37  81 NE7       30.23R
Norwich        RAIN     N/A N/A N/A CALM      30.31R
Penn Yan       LGT RAIN  36  32  85 CALM      30.30F
Rome           LGT RAIN  35  35 100 NW7       30.33R WCI  29
Sidney         LGT RAIN  37  37 100 CALM      30.29R
Syracuse       LGT RAIN  36  36 100 NW3       30.31R
$$

PAZ038>040-043-044-047-048-072-251900
...Northeast Pennsylvania...

CITY           SKY/WX    TMP DP  RH WIND       PRES   REMARKS
Hazleton       FAIR      68  52  56 W5        30.19R
Scranton       FAIR      55  43  63 N9        30.19R
$$
&&
KEY
WCI = Wind Chill Index
VSB = Visibility
HX  = Heat Index
$$




USA.gov is the U.S. government's official web portal to all federal, state and local government web resources and services.